Flag for Germany Weather past 2 weeks in Potsdam, Brandenburg, Germany

39 °F

Low clouds.

Feels Like: 35 °F
Forecast: 31 / 40 °F
Wind: 6 mph from West

Location: Berlin-Tegel

Current Time: Nov 26, 2015 at 7:21:41 AM

Latest Report: Nov 26, 2015 at 6:50 AM

Visibility: 4 mi

Pressure: 29.80 "Hg

Humidity: 93%

Dew point: 37 °F

Location of PotsdamLocation

Historic Weather in Potsdam — Graph


Potsdam temperature yesterday

Maximum temperature yesterday: 39 °F (at 12:50 PM)
Minimum temperature yesterday: 36 °F (at 12:20 AM)
Average temperature yesterday: 38 °F

Past Weeks' High & Low Weather Summary

High59 °F (Nov 12, 2:20 PM)100% (Nov 12, 10:50 PM)30.27 "Hg (Nov 12, 10:50 PM)
Low27 °F (Nov 23, 11:20 PM)55% (Nov 19, 12:50 PM)29.33 "Hg (Nov 21, 1:50 PM)
Average46 °F84%29.82 "Hg
* Reported Nov 11 5:20 AM — Nov 26 5:50 AM, Potsdam, Weather by CustomWeather, © 2015

Note: Actual official high and low records may vary slightly from our data, if they occured in-between our weather recording intervals... More about our weather records


Potsdam weather history for previous 24 hours

Time TempWeatherWind HumidityBarometerVisibility
5:50 AM
Thu, Nov 26
39 °FLight rain. Low clouds.7 mph93%29.77 "Hg4 mi
5:20 AM39 °FDrizzle. Low clouds.7 mph93%29.77 "Hg5 mi
4:50 AM39 °FLow clouds.6 mph93%29.74 "HgN/A
4:20 AM39 °FLow clouds.5 mph93%29.74 "HgN/A
3:50 AM39 °FLow clouds.9 mph93%29.74 "HgN/A
3:20 AM39 °FPassing clouds.5 mph93%29.74 "HgN/A
2:50 AM39 °FPassing clouds.3 mph93%29.71 "HgN/A
2:20 AM39 °FPassing clouds.5 mph87%29.71 "HgN/A
1:20 AM37 °FPartly cloudy.3 mph93%29.71 "HgN/A
12:50 AM37 °FPartly cloudy.3 mph93%29.71 "HgN/A
12:20 AM39 °FPartly cloudy.3 mph87%29.71 "HgN/A
11:50 PM
Wed, Nov 25
39 °FPassing clouds.3 mph93%29.71 "HgN/A
11:20 PM39 °FPassing clouds.7 mph87%29.68 "HgN/A
10:50 PM39 °FPassing clouds.5 mph87%29.68 "HgN/A
10:20 PM39 °FPassing clouds.3 mph87%29.68 "HgN/A
9:50 PM39 °FPassing clouds.6 mph87%29.68 "HgN/A
9:20 PM39 °FPassing clouds.6 mph87%29.68 "HgN/A
8:50 PM39 °FPassing clouds.6 mph87%29.68 "HgN/A
8:20 PM39 °FPartly cloudy.7 mph87%29.68 "HgN/A
7:50 PM39 °FLight rain. Partly cloudy.7 mph87%29.68 "HgN/A
7:20 PM39 °FLight rain. Partly cloudy.7 mph87%29.65 "HgN/A
6:50 PM39 °FLight rain. Passing clouds.7 mph87%29.65 "HgN/A
6:20 PM39 °FPassing clouds.7 mph87%29.65 "HgN/A
5:50 PM39 °FPassing clouds.8 mph87%29.65 "HgN/A
5:20 PM39 °FPassing clouds.8 mph87%29.65 "HgN/A
4:50 PM39 °FPassing clouds.8 mph87%29.65 "HgN/A
4:20 PM39 °FLight rain. Passing clouds.6 mph81%29.65 "HgN/A
3:50 PM39 °FPartly sunny.7 mph81%29.65 "HgN/A
3:20 PM39 °FLight rain. Partly sunny.9 mph87%29.65 "HgN/A
2:50 PM39 °FPartly sunny.9 mph81%29.65 "HgN/A
2:20 PM39 °FPartly sunny.7 mph81%29.65 "HgN/A
1:50 PM39 °FBroken clouds.7 mph81%29.65 "HgN/A
1:20 PM39 °FBroken clouds.7 mph81%29.65 "HgN/A
12:50 PM39 °FLight rain. Broken clouds.9 mph81%29.65 "HgN/A
12:20 PM37 °FLight rain. Partly sunny.10 mph87%29.65 "HgN/A
11:50 AM37 °FLight rain. Partly sunny.8 mph87%29.65 "HgN/A
11:20 AM37 °FLight rain. Broken clouds.9 mph81%29.68 "HgN/A
10:50 AM37 °FLight rain. Broken clouds.9 mph81%29.68 "HgN/A
10:20 AM37 °FLight rain. Broken clouds.9 mph81%29.68 "HgN/A
9:50 AM36 °FLight rain. Broken clouds.12 mph87%29.68 "HgN/A
9:20 AM36 °FLight rain. Partly sunny.9 mph87%29.68 "HgN/A
8:50 AM36 °FSleet. Partly sunny.12 mph87%29.68 "HgN/A
8:20 AM36 °FLight rain. Broken clouds.10 mph81%29.68 "HgN/A
7:50 AM36 °FPartly sunny.10 mph81%29.68 "HgN/A
7:20 AM36 °FPassing clouds.12 mph81%29.68 "HgN/A
Weather by CustomWeather, © 2015

See weather overviewHow to use our weather pages